[[{"header":{"parameterUnit":"m.s-1","parameterCategory":1,"la1":30.2991,"la2":30.254,"lo1":-89.0895,"lo2":-89.0444,"dy":0.0017,"dx":0.0017,"nx":28,"ny":28,"refTime":"2024-10-03T09:00:00:Z","depth":0,"parameterNumber":2,"parameterNumberName":"U-component_of_WINDS"},"data":[0,0,0,0,0,0,0,0,0,0,0,0,0,0,0,0,0,0,0,0,0,0,0,0,0,0,0,0,0,0,0,0,0,0,0,0,0,0,0,0,0,0,0,0,0,0,0,0,0,0,0,0,0,0,0,0,0,0,-4.1712,-4.1712,0,-4.1764,-4.1764,-4.1765,-4.1632,-4.1627,-4.1623,-4.1619,-4.1675,-4.168,-4.1685,0,0,0,0,0,0,0,0,0,0,0,0,0,-4.15,-4.1505,-4.1712,-4.1713,-4.1713,-4.1763,-4.1764,-4.1765,-4.1632,-4.1627,-4.1622,-4.1617,-4.1673,-4.1679,-4.1686,0,0,0,0,0,0,0,0,0,0,0,0,0,-4.1576,-4.1506,-4.1712,-4.1653,-4.1648,-4.1763,-4.1764,-4.1765,-4.1633,-4.1627,-4.1621,-4.1615,-4.1671,-4.1679,-4.1687,-4.1862,0,0,-4.1711,-4.1715,0,0,0,0,0,0,0,0,-4.1572,-4.1584,-4.1661,-4.1657,-4.1652,-4.1685,-4.171,-4.1798,-4.1635,-4.1639,-4.1619,-4.1612,-4.1683,-4.169,-4.1713,-4.1864,-4.1867,-4.1712,-4.1717,-4.172,-4.1722,0,0,0,0,0,0,0,-4.1567,-4.1581,-4.1732,-4.1662,-4.1657,-4.1625,-4.1629,-4.1726,-4.1696,-4.1638,-4.1629,-4.1637,-4.168,-4.1706,-4.1714,-4.1867,-4.1712,-4.1719,-4.1724,-4.1727,-4.2165,-4.2172,0,0,0,0,0,0,-4.1569,-4.1578,-4.1731,-4.1734,-4.1596,-4.1634,-4.1638,-4.1681,-4.1694,-4.169,-4.1642,-4.163,-4.1695,-4.1704,-4.1715,-4.1922,-4.172,-4.1728,-4.1732,-4.2159,-4.2167,-4.2174,0,0,0,0,0,0,-4.1565,-4.1584,-4.1729,-4.1653,-4.1669,-4.1644,-4.1693,-4.1685,-4.1711,-4.1697,-4.1691,-4.1674,-4.1691,-4.1704,-4.1826,-4.1922,-4.1731,-4.1739,-4.215,-4.2161,-4.217,-4.2336,0,0,0,0,0,0,-4.1559,-4.1583,-4.1649,-4.1656,-4.1674,-4.1839,-4.1699,-4.169,-4.1725,-4.171,-4.1726,-4.1722,-4.1687,-4.1815,-4.1834,-4.1929,-4.1745,-4.2142,-4.2155,-4.2167,-4.2322,-4.2351,-4.2376,0,0,0,0,0,-4.1552,-4.1694,-4.1653,-4.1672,-4.1755,-4.1844,-4.1855,-4.181,-4.1733,-4.18,-4.1791,-4.1722,-4.1908,-4.1829,-4.1849,-4.1948,-4.2136,-4.2151,-4.2166,-4.231,-4.2345,-4.2375,0,0,0,0,0,0,-4.17,-4.1694,-4.1648,-4.1796,-4.1822,-4.1822,-4.1904,-4.1849,-4.1897,-4.1882,-4.1825,-4.1829,-4.1963,-4.1967,-4.1879,-4.2119,-4.2009,-4.2029,-4.2111,-4.2144,-4.2171,-4.2167,-4.1752,0,0,0,0,0,-4.175,-4.1822,-4.1813,-4.1944,-4.1959,-4.193,-4.1967,-4.1931,-4.1955,-4.1965,-4.1965,-4.1992,-4.2057,-4.21,-4.2159,-4.2322,-4.2324,-4.24,-4.2427,-4.2449,-4.2468,-4.2555,-4.2589,-4.2225,-4.2224,-4.2224,0,0,-4.1853,-4.1859,-4.1908,-4.1974,-4.199,-4.2067,-4.194,-4.2026,-4.2083,-4.1979,-4.2094,-4.2096,-4.2122,-4.2266,-4.2329,-4.2274,-4.2568,-4.2468,-4.2486,-4.2493,-4.2574,-4.2609,-4.264,-4.2235,-4.2233,-4.2231,0,0,-4.2082,-4.2093,-4.2204,-4.2222,-4.2247,-4.2226,-4.2253,-4.2262,-4.2258,-4.2373,-4.2297,-4.2363,-4.2475,-4.2498,-4.2524,-4.2761,-4.27,-4.2782,-4.2922,-4.3008,-4.3037,-4.3062,-4.3148,-4.3179,-4.28,-4.28,-4.2801,0,-4.2208,-4.232,-4.2268,-4.236,-4.2392,-4.23,-4.2413,-4.2433,-4.2476,-4.2501,-4.2438,-4.2577,-4.2588,-4.2736,-4.2794,-4.2818,-4.2848,-4.278,-4.3036,-4.3061,-4.3084,-4.3165,-4.3198,-4.281,-4.2809,-4.2808,-4.2807,0,-4.2474,-4.2553,-4.264,-4.2684,-4.2725,-4.2827,-4.2792,-4.284,-4.28,-4.2787,-4.2905,-4.2915,-4.2975,-4.3007,-4.2969,-4.3151,-4.3115,-4.3046,-4.2934,-4.313,-4.3205,-4.3236,-4.2824,-4.2821,-4.2818,-4.2815,0,0,-4.2798,-4.2812,-4.2845,-4.2864,-4.2884,-4.2945,-4.3043,-4.31,-4.3143,-4.3176,-4.3258,-4.3355,-4.329,-4.332,-4.3284,-4.3359,-4.3548,-4.328,-4.3279,-4.333,-4.375,-4.3804,-4.3841,-4.3507,-4.3513,-4.3517,-4.3748,0,-4.3024,-4.3192,-4.3149,-4.3316,-4.3389,-4.3303,-4.3389,-4.3411,-4.3401,-4.3462,-4.3451,-4.3521,-4.343,-4.3448,-4.3518,-4.351,-4.3632,-4.3493,-4.3584,-4.3588,-4.3582,-4.388,-4.3937,-4.4154,-4.3778,-4.3782,-4.3786,0,-4.3311,-4.3355,-4.353,-4.3539,-4.3568,-4.3646,-4.3695,-4.3754,-4.3778,-4.3766,-4.38,-4.3748,-4.3846,-4.3733,-4.3867,-4.3774,-4.3808,-4.381,-4.3817,-4.3825,-4.37,-4.3897,-4.4223,-4.4256,-4.3832,-4.3828,-4.3825,0,-4.3531,-4.3634,-4.3752,-4.3771,-4.3784,-4.3841,-4.385,-4.3867,-4.3905,-4.3948,-4.3972,-4.4027,-4.4057,-4.4101,-4.4066,-4.3987,-4.4207,-4.4091,-4.4201,-4.4202,-4.4252,-4.425,-4.4589,-4.4273,-4.4272,-4.4271,-4.4271,0,-4.379,-4.3901,-4.3851,-4.3924,-4.4046,-4.3995,-4.4117,-4.4115,-4.4132,-4.4204,-4.4132,-4.4201,-4.415,-4.4215,-4.4188,-4.4305,-4.4319,-4.4312,-4.4304,-4.4319,-4.4321,-4.4342,-4.4327,-4.428,-4.4278,-4.4277,-4.4275,0,-4.4057,-4.4028,-4.4151,-4.4154,-4.4157,-4.4247,-4.4249,-4.4317,-4.4302,-4.4394,-4.4412,-4.4389,-4.4461,-4.443,-4.4507,-4.4489,-4.4639,-4.461,-4.4631,-4.4624,-4.4736,-4.4727,-4.5103,-4.515,-4.4802,-4.4806,-4.4808,0,-4.4224,-4.4307,-4.4319,-4.4361,-4.4375,-4.4444,-4.4482,-4.4435,-4.4478,-4.4511,-4.4576,-4.4642,-4.4693,-4.4813,-4.4804,-4.4862,-4.4835,-4.4963,-4.4843,-4.4857,-4.4839,-4.4835,-4.4843,-4.4987,-4.4991,-4.4994,-4.4997,0,-4.4525,-4.4506,-4.4563,-4.4616,-4.4663,-4.4703,-4.4736,-4.4775,-4.4729,-4.4781,-4.4854,-4.4894,-4.4972,-4.5039,-4.5091,-4.51,-4.5043,-4.5035,-4.5063,-4.5081,-4.509,-4.5088,-4.4698,-4.5026,-4.5024,-4.5021,-4.502,-4.5019,-4.4748,-4.4818,-4.4837,-4.4903,-4.4923,-4.4956,-4.502,-4.5013,-4.5073,-4.5132,-4.5101,-4.5187,-4.5209,-4.5273,-4.529,-4.5357,-4.5307,-4.5348,-4.5359,-4.537,-4.5386,-4.5078,-4.5366,-4.5365,-4.5364,-4.5364,-4.5363,0,-4.5045,-4.5053,-4.5115,-4.5163,-4.5216,-4.5155,-4.5189,-4.5237,-4.5313,-4.5339,-4.539,-4.5475,-4.554,-4.5535,-4.5595,-4.565,-4.5625,-4.5667,-4.5663,-4.5667,-4.5426,-4.5396,-4.5687,-4.5687,-4.5686,-4.5686,-4.5686,-4.5686,-4.5206,-4.5322,-4.5307,-4.5432,-4.5439,-4.5522,-4.5547,-4.5577,-4.5597,-4.5695,-4.5748,-4.5744,-4.5758,-4.5819,-4.5876,-4.5873,-4.5899,-4.5952,-4.594,-4.5716,-4.5684,-4.5653,-4.5624,-4.5958,-4.5958,-4.6174,-4.6176,-4.6178]},{"header":{"parameterUnit":"m.s-1","parameterCategory":1,"la1":30.2991,"la2":30.254,"lo1":-89.0895,"lo2":-89.0444,"dy":0.0017,"dx":0.0017,"nx":28,"ny":28,"refTime":"2024-10-03T09:00:00:Z","depth":0,"parameterNumber":3,"parameterNumberName":"V-component_of_WINDS"},"data":[0,0,0,0,0,0,0,0,0,0,0,0,0,0,0,0,0,0,0,0,0,0,0,0,0,0,0,0,0,0,0,0,0,0,0,0,0,0,0,0,0,0,0,0,0,0,0,0,0,0,0,0,0,0,0,0,0,0,-3.545,-3.545,0,-3.544,-3.544,-3.544,-3.5381,-3.538,-3.5379,-3.5377,-3.5367,-3.5368,-3.5369,0,0,0,0,0,0,0,0,0,0,0,0,0,-3.5417,-3.5418,-3.545,-3.545,-3.545,-3.544,-3.544,-3.544,-3.5382,-3.538,-3.5378,-3.5377,-3.5366,-3.5367,-3.5369,0,0,0,0,0,0,0,0,0,0,0,0,0,-3.5422,-3.5419,-3.545,-3.542,-3.5417,-3.544,-3.544,-3.544,-3.5382,-3.538,-3.5378,-3.5376,-3.5366,-3.5367,-3.5369,-3.5421,0,0,-3.5374,-3.5374,0,0,0,0,0,0,0,0,-3.5422,-3.5423,-3.5424,-3.5422,-3.5419,-3.541,-3.5424,-3.5433,-3.5383,-3.5395,-3.5377,-3.5375,-3.5383,-3.5383,-3.5385,-3.542,-3.542,-3.5374,-3.5375,-3.5375,-3.5376,0,0,0,0,0,0,0,-3.5422,-3.5423,-3.5446,-3.5425,-3.5421,-3.5406,-3.5404,-3.5426,-3.5401,-3.5394,-3.539,-3.5389,-3.5381,-3.5384,-3.5385,-3.5419,-3.5374,-3.5375,-3.5376,-3.5377,-3.5494,-3.5496,0,0,0,0,0,0,-3.5426,-3.5423,-3.5447,-3.5446,-3.5415,-3.5408,-3.5406,-3.5415,-3.5401,-3.5396,-3.5391,-3.5387,-3.5382,-3.5383,-3.5384,-3.5442,-3.5375,-3.5377,-3.5378,-3.5491,-3.5494,-3.5496,0,0,0,0,0,0,-3.5425,-3.5428,-3.5447,-3.5434,-3.5435,-3.5411,-3.5421,-3.5416,-3.5419,-3.5398,-3.5394,-3.5399,-3.5381,-3.5382,-3.5411,-3.5441,-3.5377,-3.5379,-3.5489,-3.5492,-3.5495,-3.556,0,0,0,0,0,0,-3.5424,-3.5428,-3.5449,-3.5434,-3.5436,-3.5475,-3.5423,-3.5417,-3.5422,-3.5416,-3.5405,-3.5401,-3.5379,-3.5409,-3.5413,-3.5442,-3.538,-3.5486,-3.549,-3.5494,-3.5555,-3.5565,-3.5573,0,0,0,0,0,-3.5424,-3.5468,-3.545,-3.5453,-3.546,-3.5477,-3.5478,-3.5452,-3.5425,-3.5444,-3.543,-3.5401,-3.5437,-3.5413,-3.5416,-3.5446,-3.5484,-3.5489,-3.5494,-3.5551,-3.5563,-3.5573,0,0,0,0,0,0,-3.5486,-3.5465,-3.5445,-3.5486,-3.5484,-3.5467,-3.5491,-3.5466,-3.5472,-3.5466,-3.5434,-3.5432,-3.5465,-3.5459,-3.5432,-3.5494,-3.5456,-3.5461,-3.5497,-3.5509,-3.5518,-3.5518,-3.5381,0,0,0,0,0,-3.5505,-3.552,-3.5501,-3.5539,-3.5539,-3.5515,-3.5522,-3.5502,-3.5498,-3.5497,-3.5485,-3.5483,-3.5493,-3.5501,-3.5509,-3.5554,-3.5549,-3.5576,-3.5585,-3.5593,-3.5598,-3.5618,-3.5629,-3.5513,-3.5512,-3.5512,0,0,-3.5543,-3.5534,-3.5546,-3.5551,-3.5547,-3.5563,-3.5515,-3.5535,-3.5546,-3.55,-3.5526,-3.5518,-3.5513,-3.5549,-3.5565,-3.5545,-3.5629,-3.5599,-3.5605,-3.5606,-3.5625,-3.5636,-3.5646,-3.5516,-3.5515,-3.5515,0,0,-3.5621,-3.5616,-3.5646,-3.5643,-3.5637,-3.562,-3.5628,-3.5614,-3.5607,-3.5633,-3.5598,-3.5611,-3.563,-3.5627,-3.5628,-3.5703,-3.5676,-3.5707,-3.5755,-3.5776,-3.5785,-3.5793,-3.5818,-3.5827,-3.5712,-3.5712,-3.5713,0,-3.567,-3.5693,-3.5665,-3.5686,-3.5689,-3.5647,-3.5676,-3.5675,-3.5672,-3.5674,-3.5652,-3.5674,-3.5668,-3.5702,-3.572,-3.5723,-3.5729,-3.5708,-3.5786,-3.5793,-3.58,-3.5824,-3.5834,-3.5716,-3.5716,-3.5715,-3.5715,0,-3.5752,-3.5769,-3.5793,-3.5791,-3.5796,-3.5822,-3.5797,-3.5805,-3.5785,-3.5771,-3.5797,-3.5788,-3.5793,-3.58,-3.578,-3.5831,-3.5818,-3.5792,-3.5752,-3.5816,-3.5837,-3.5846,-3.5721,-3.572,-3.5719,-3.5718,0,0,-3.587,-3.585,-3.586,-3.5857,-3.5847,-3.5859,-3.5881,-3.5886,-3.5893,-3.5893,-3.591,-3.5926,-3.5901,-3.5902,-3.5882,-3.59,-3.5958,-3.5871,-3.587,-3.5886,-3.6011,-3.603,-3.6041,-3.594,-3.5942,-3.5943,-3.6011,0,-3.5943,-3.5981,-3.5955,-3.5997,-3.6011,-3.5971,-3.599,-3.5985,-3.5973,-3.5982,-3.5968,-3.5979,-3.5946,-3.5946,-3.5962,-3.5947,-3.5982,-3.5942,-3.5955,-3.5955,-3.5956,-3.6053,-3.6073,-3.6138,-3.6019,-3.602,-3.6022,0,-3.6034,-3.6036,-3.6079,-3.6064,-3.6069,-3.6087,-3.6088,-3.6098,-3.6091,-3.608,-3.6081,-3.6055,-3.6075,-3.6037,-3.6063,-3.6036,-3.604,-3.6033,-3.6035,-3.6034,-3.5992,-3.6053,-3.6158,-3.6167,-3.6035,-3.6034,-3.6033,0,-3.6113,-3.6127,-3.6154,-3.6153,-3.6137,-3.615,-3.6144,-3.6135,-3.6139,-3.614,-3.6141,-3.6145,-3.6147,-3.615,-3.6125,-3.61,-3.6154,-3.6114,-3.6145,-3.6145,-3.6157,-3.6157,-3.6263,-3.6162,-3.6162,-3.6162,-3.6162,0,-3.6197,-3.6225,-3.6189,-3.6206,-3.6234,-3.6204,-3.6234,-3.6223,-3.6215,-3.6228,-3.6194,-3.6207,-3.6175,-3.6184,-3.6165,-3.6189,-3.619,-3.6181,-3.6176,-3.6184,-3.6184,-3.6185,-3.6179,-3.6164,-3.6164,-3.6163,-3.6163,0,-3.6291,-3.6268,-3.6294,-3.6276,-3.6272,-3.6294,-3.6278,-3.6292,-3.6276,-3.6293,-3.6295,-3.6271,-3.6279,-3.6255,-3.6261,-3.6248,-3.6282,-3.627,-3.6284,-3.628,-3.6312,-3.6308,-3.6421,-3.6433,-3.6326,-3.6327,-3.6328,0,-3.6345,-3.6365,-3.6349,-3.6354,-3.635,-3.636,-3.6363,-3.6334,-3.6339,-3.6332,-3.6346,-3.6352,-3.6355,-3.6371,-3.6353,-3.6357,-3.6344,-3.6383,-3.6344,-3.6351,-3.6342,-3.6341,-3.6342,-3.6391,-3.6392,-3.6393,-3.6394,0,-3.6444,-3.6431,-3.6437,-3.6439,-3.6443,-3.6443,-3.6441,-3.6448,-3.6416,-3.6423,-3.6431,-3.6434,-3.6439,-3.6444,-3.6444,-3.6437,-3.641,-3.6406,-3.6413,-3.6421,-3.6428,-3.6423,-3.6305,-3.6404,-3.6403,-3.6402,-3.6401,-3.6401,-3.6518,-3.6533,-3.6523,-3.653,-3.6525,-3.6523,-3.6535,-3.652,-3.6527,-3.6528,-3.651,-3.6522,-3.6513,-3.6509,-3.6505,-3.6513,-3.6495,-3.6505,-3.6508,-3.651,-3.6515,-3.6427,-3.6513,-3.6512,-3.6512,-3.6512,-3.6512,0,-3.6613,-3.6605,-3.6612,-3.6609,-3.6614,-3.6588,-3.6583,-3.6589,-3.66,-3.6594,-3.6597,-3.6606,-3.6611,-3.6593,-3.6596,-3.6606,-3.6593,-3.6607,-3.6605,-3.6604,-3.6532,-3.6525,-3.6617,-3.6617,-3.6617,-3.6617,-3.6617,-3.6617,-3.6664,-3.6687,-3.6673,-3.6692,-3.6683,-3.6694,-3.6693,-3.6691,-3.6686,-3.6697,-3.6701,-3.6689,-3.6678,-3.6679,-3.6682,-3.6676,-3.6678,-3.6696,-3.6687,-3.6619,-3.6609,-3.6599,-3.6592,-3.6697,-3.6697,-3.6757,-3.6758,-3.6759]}]]